User: anonymous   Login
Location: Fort Wayne
(41.1310°N, 85.1290°W)
Time: 06:08:05
(UTC-04:00)
Language:

Cosmos 2082 - Orbit

View from above orbital plane
View from above orbital plane
View from above satellite
View from above satellite

Ground track
Ground track

The orbit data is extracted from the following two-line orbital elements,

1 20624U 90046A   16177.70840189  .00000300  00000-0  18205-3 0  9994
2 20624  71.0406 240.6762 0016133 217.0780 142.9229 14.14202340346799
Epoch (UTC): 25 June 2016 17:00:05
Eccentricity: 0.0016133
inclination: 71.0406°
perigee height: 833 km
apogee height: 856 km
right ascension of ascending node: 240.6762°
argument of perigee: 217.0780°
revolutions per day: 14.14202340
mean anomaly at epoch: 142.9229°
orbit number at epoch: 34679

The dashed part of the orbit path shows where the satellite is in the earth's shadow,  

DLR